Hourly Data Report for March 23, 2012

BAGOTVILLE A
QUEBEC

48°20'00.000" N
71°00'00.000" W
159.10 m
7060400
71727
YBG

Download Data

Hourly Data (March 2012)
Hourly Data Report for March 23, 2012
TIME
LST
Temp Definition
°C
Dew Point Definition
°C
Rel Hum Definition
%
Precip. Amount Definition
mm

Wind Dir Definition
10's deg

Wind Spd Definition
km/h
Visibility Definition
km
Stn Press Definition
kPa
Hmdx Definition


Wind Chill Definition


Weather Definition


00:00 5.4 -6.3 43   29 20 24.1 99.96     Clear
01:00 4.5 -5.1 50   28 19 24.1 99.98     Clear
02:00 3.2 -4.6 57   27 26 24.1 99.96     Clear
03:00 3.0 -4.8 56   27 24 24.1 99.94     Clear
04:00 2.8 -5.4 55   27 26 24.1 99.93     Clear
05:00 3.4 -5.5 52   27 26 24.1 99.93     Mainly Clear
06:00 3.0 -5.8 52   29 32 40.2 99.97     Clear
07:00 2.8 -5.4 55   29 37 40.2 100.01     Clear
08:00 3.2 -5.5 53   29 37 40.2 100.02     Clear
09:00 3.8 -6.7 46   30 41 40.2 100.09     Mainly Clear
10:00 4.5 -8.6 38   30 30 40.2 100.10     Mainly Clear
11:00 5.0 -9.3 35   31 39 40.2 100.09     Mainly Clear
12:00 5.4 -10.3 31   30 35 40.2 100.08     Mainly Clear
13:00 5.4 -10.3 31   31 33 40.2 100.10     Mainly Clear
14:00 5.0 -10.7 31   30 35 40.2 100.16     Mainly Clear
15:00 4.3 -11.3 31   32 28 40.2 100.17     Mainly Clear
16:00 3.8 -10.4 35   30 33 40.2 100.20     Mainly Clear
17:00 3.0 -11.2 34   30 28 40.2 100.21     Mainly Clear
18:00 1.6 -11.2 38   30 22 40.2 100.29     Mainly Clear
19:00 0.7 -11.0 41   31 20 24.1 100.36     Mainly Clear
20:00 -0.5 -11.0 45   31 20 24.1 100.43   -6 Clear
21:00 -1.4 -10.8 49   31 17 24.1 100.46   -7 Clear
22:00 -2.2 -10.0 55   31 15 24.1 100.45   -7 Clear
23:00 -3.1 -5.9 81   31 7 24.1 100.44   -6 Clear

Notes on Data Quality.

Legend

  • E = Estimated
  • M = Missing
  • NA = Not Available*
  • [empty] = Indicates an unobserved value
Date modified: